User: anonymous   Login
Location: Edmonton
(53.5500°N, 113.5000°W)
Time: 08:15:27
(UTC-06:00)
Language:

CZ-4C R/B - Orbit

View from above orbital plane
View from above orbital plane
View from above satellite
View from above satellite

Ground track
Ground track

The orbit data is extracted from the following two-line orbital elements,

1 36416U 10009D   16242.78742072 -.00000077 +00000-0 +13846-4 0  9993
2 36416 063.4436 325.3135 0358251 357.1138 002.7828 13.69499504324301
Epoch (UTC): 29 August 2016 18:53:53
Eccentricity: 0.0358251
inclination: 63.4436°
perigee height: 737 km
apogee height: 1266 km
right ascension of ascending node: 325.3135°
argument of perigee: 357.1138°
revolutions per day: 13.69499504
mean anomaly at epoch: 2.7828°
orbit number at epoch: 32430

The dashed part of the orbit path shows where the satellite is in the earth's shadow,  

DLR